Date String (YYYY-MM-DD hh:mm:ss) UTC,Instrument flags,Ambient pressure (hPa),Sample flow (lpm),Bypass flow (lpm),Sample temperature (°C),Ambient temperature (°C),ASC tube jacket temperature (°C),LED temperature (°C),Box temperature (°C),Sample RH (%),Span deviation,Mass concentration (μg/m³),Mass concentration (μg/m³),Mass concentration (μg/m³)
DateTimeUTC,F1_M11,P_M11,Q1_M11,Q2_M11,T1_M11,T2_M11,T3_M11,T4_M11,T5_M11,U1_M11,ZSPAN_M11,X2_M11,X0_M11,X1_M11
2022-07-27 16:00:00,,0829.0,5.01,0.00,33.5,28.8,00.0,41.1,33.0,34.8,0001.2,0012.86,0020.23,0011.75
2022-07-27 16:01:00,,0829.0,4.99,0.00,33.5,28.9,00.0,41.1,33.0,33.8,0001.4,0012.73,0020.04,0011.65
2022-07-27 16:02:00,,0829.0,4.99,0.00,33.4,28.9,00.0,41.1,33.1,33.8,0001.2,0012.57,0019.47,0011.56
2022-07-27 16:03:00,,0829.0,5.00,0.00,33.4,28.4,00.0,41.1,33.0,33.5,0001.0,0012.49,0019.27,0011.49
2022-07-27 16:04:00,,0829.0,5.00,0.00,33.3,27.9,00.0,41.0,32.9,33.7,0000.8,0012.41,0018.96,0011.43
2022-07-27 16:05:00,,0828.9,5.00,0.00,33.1,27.7,00.0,41.0,32.8,33.9,0001.0,0012.43,0018.62,0011.44
2022-07-27 16:06:00,,0828.9,5.00,0.00,33.0,27.8,00.0,41.0,32.6,34.4,0001.1,0012.51,0018.96,0011.48
2022-07-27 16:07:00,,0828.9,4.99,0.00,32.8,27.9,00.0,40.9,32.6,34.6,0001.3,0012.65,0019.93,0011.62
2022-07-27 16:08:00,,0828.9,5.00,0.00,32.7,28.1,00.0,40.9,32.6,35.2,0001.3,0012.77,0020.07,0011.78
2022-07-27 16:09:00,,0828.9,4.98,0.00,32.8,28.3,00.0,40.9,32.7,34.9,0001.2,0012.78,0019.92,0011.82
2022-07-27 16:10:00,,0829.0,5.01,0.00,32.8,28.4,00.0,40.8,32.8,34.6,0001.2,0012.82,0020.30,0011.85
2022-07-27 16:11:00,,0829.0,5.00,0.00,32.9,28.6,00.0,40.8,32.8,34.8,0001.2,0012.77,0019.93,0011.82
2022-07-27 16:12:00,,0829.0,5.00,0.00,32.9,28.7,00.0,40.8,32.9,34.8,0001.1,0012.79,0019.44,0011.81
2022-07-27 16:13:00,,0829.1,5.01,0.00,32.9,28.8,00.0,40.8,32.9,34.7,0001.2,0012.83,0019.30,0011.84
2022-07-27 16:14:00,,0829.0,5.00,0.00,32.9,28.4,00.0,40.7,32.8,34.6,0001.3,0012.85,0019.88,0011.84
2022-07-27 16:15:00,,0829.0,5.01,0.00,32.8,27.8,00.0,40.7,32.7,35.0,0001.4,0012.87,0020.31,0011.82
2022-07-27 16:16:00,,0829.0,5.00,0.00,32.8,27.6,00.0,40.7,32.7,35.6,0001.3,0012.84,0021.39,0011.75
2022-07-27 16:17:00,,0829.0,5.00,0.00,32.9,27.6,00.0,40.6,32.7,35.4,0001.4,0012.71,0021.61,0011.64
2022-07-27 16:18:00,,0829.1,5.01,0.00,33.1,27.8,00.0,40.6,32.8,33.7,0001.3,0012.42,0020.87,0011.39
2022-07-27 16:19:00,,0829.0,4.99,0.00,33.2,27.9,00.0,40.6,32.8,33.0,0001.4,0012.11,0020.55,0011.07
2022-07-27 16:20:00,,0829.1,5.00,0.00,33.3,28.1,00.0,40.6,32.8,32.6,0001.5,0011.86,0020.27,0010.84
2022-07-27 16:21:00,,0829.1,5.01,0.00,33.3,28.3,00.0,40.7,32.8,32.8,0001.5,0011.61,0019.59,0010.61
2022-07-27 16:22:00,,0829.1,4.99,0.00,33.2,28.5,00.0,40.7,32.8,33.3,0001.6,0011.37,0019.26,0010.37
2022-07-27 16:23:00,,0829.0,5.01,0.00,33.2,28.6,00.0,40.8,32.8,33.3,0001.8,0011.18,0019.03,0010.18
2022-07-27 16:24:00,,0829.0,5.00,0.00,33.1,28.8,00.0,40.8,32.8,33.1,0001.9,0010.98,0019.09,0009.94
2022-07-27 16:25:00,,0829.1,5.01,0.00,33.0,28.8,00.0,40.8,32.9,33.1,0001.9,0010.70,0018.22,0009.68
2022-07-27 16:26:00,,0829.0,4.99,0.00,33.0,28.2,00.0,40.8,32.8,33.6,0001.9,0010.33,0017.24,0009.39
2022-07-27 16:27:00,,0829.1,5.00,0.00,32.9,27.7,00.0,40.7,32.7,33.4,0002.0,0010.00,0015.72,0009.12
2022-07-27 16:28:00,,0829.0,5.00,0.00,32.7,27.6,00.0,40.7,32.5,33.3,0001.9,0009.81,0015.09,0008.95
2022-07-27 16:29:00,,0829.0,5.01,0.00,32.5,27.7,00.0,40.7,32.3,34.0,0001.8,0009.78,0014.66,0008.89
2022-07-27 16:30:00,,0829.0,4.98,0.00,32.4,27.8,00.0,40.6,32.4,34.7,0001.9,0009.74,0014.45,0008.90
2022-07-27 16:31:00,,0829.0,5.01,0.00,32.3,28.0,00.0,40.6,32.4,34.4,0002.2,0009.79,0014.64,0008.89
2022-07-27 16:32:00,,0829.0,4.99,0.00,32.2,28.2,00.0,40.6,32.4,34.3,0002.4,0009.75,0014.73,0008.83
2022-07-27 16:33:00,,0829.0,4.99,0.00,32.2,28.3,00.0,40.5,32.5,34.5,0002.4,0009.73,0014.69,0008.80
2022-07-27 16:34:00,,0829.0,5.01,0.00,32.1,28.5,00.0,40.5,32.5,34.6,0002.2,0009.71,0014.68,0008.79
2022-07-27 16:35:00,,0829.0,4.99,0.00,32.0,28.6,00.0,40.5,32.5,34.7,0002.0,0009.77,0014.62,0008.83
2022-07-27 16:36:00,,0829.0,5.00,0.00,32.0,28.8,00.0,40.4,32.6,34.9,0001.9,0009.83,0014.61,0008.89
2022-07-27 16:37:00,,0829.0,4.99,0.00,32.0,28.6,00.0,40.4,32.6,35.5,0001.6,0009.89,0015.05,0008.96
2022-07-27 16:38:00,,0829.0,5.00,0.00,32.2,28.0,00.0,40.3,32.6,34.7,0001.4,0009.91,0015.64,0008.92
2022-07-27 16:39:00,,0829.0,4.99,0.00,32.3,27.6,00.0,40.2,32.6,34.0,0001.6,0009.82,0015.61,0008.83
2022-07-27 16:40:00,,0829.1,5.00,0.00,32.2,27.5,00.0,40.2,32.4,34.2,0001.8,0009.71,0016.14,0008.74
2022-07-27 16:41:00,,0829.0,5.00,0.00,32.2,27.6,00.0,40.2,32.3,34.3,0001.6,0009.56,0016.01,0008.60
2022-07-27 16:42:00,,0829.0,5.00,0.00,32.1,27.8,00.0,40.2,32.3,34.5,0001.4,0009.46,0015.92,0008.52
2022-07-27 16:43:00,,0829.1,5.00,0.00,32.0,27.9,00.0,40.2,32.3,34.4,0001.5,0009.46,0015.64,0008.52
2022-07-27 16:44:00,,0829.1,5.01,0.00,32.0,28.1,00.0,40.2,32.3,34.3,0001.5,0009.43,0015.55,0008.52
2022-07-27 16:45:00,,0829.1,4.98,0.00,31.9,28.3,00.0,40.2,32.4,34.3,0001.3,0009.30,0015.30,0008.45
2022-07-27 16:46:00,,0829.1,5.01,0.00,31.9,28.5,00.0,40.2,32.4,34.5,0001.3,0009.13,0015.00,0008.35
2022-07-27 16:47:00,,0829.0,5.00,0.00,31.9,28.6,00.0,40.2,32.4,35.5,0001.4,0009.06,0014.89,0008.29
2022-07-27 16:48:00,,0829.1,5.00,0.00,32.0,28.6,00.0,40.1,32.6,35.2,0001.6,0009.06,0014.86,0008.26
2022-07-27 16:49:00,,0829.1,5.01,0.00,32.2,28.0,00.0,40.1,32.6,35.0,0001.5,0009.05,0014.73,0008.29
2022-07-27 16:50:00,,0829.0,4.99,0.00,32.3,27.5,00.0,40.0,32.6,34.5,0001.4,0009.04,0014.94,0008.31
2022-07-27 16:51:00,,0829.1,4.99,0.00,32.4,27.4,00.0,40.0,32.4,34.1,0001.1,0009.05,0014.59,0008.31
2022-07-27 16:52:00,,0829.1,5.01,0.00,32.3,27.5,00.0,40.0,32.3,34.1,0001.0,0009.13,0014.81,0008.36
2022-07-27 16:53:00,,0829.1,4.99,0.00,32.3,27.6,00.0,40.1,32.2,33.9,0001.4,0009.19,0014.96,0008.41
2022-07-27 16:54:00,,0829.1,5.00,0.00,32.2,27.8,00.0,40.1,32.2,34.0,0001.0,0009.16,0014.89,0008.42
2022-07-27 16:55:00,,0829.1,4.99,0.00,32.2,28.0,00.0,40.1,32.3,34.5,0000.8,0009.15,0015.14,0008.42
2022-07-27 16:56:00,,0829.2,5.01,0.00,32.1,28.2,00.0,40.1,32.3,34.1,0000.9,0009.29,0015.46,0008.50
2022-07-27 16:57:00,,0829.2,4.99,0.00,32.1,28.4,00.0,40.1,32.4,34.7,0000.9,0009.44,0015.71,0008.61
2022-07-27 16:58:00,,0829.3,5.00,0.00,32.1,28.5,00.0,40.1,32.5,34.4,0001.3,0009.49,0015.72,0008.68
2022-07-27 16:59:00,,0829.2,5.01,0.00,32.1,28.7,00.0,40.1,32.5,34.6,0001.5,0009.51,0015.50,0008.72
